Location: Houston
(29.7631°N, 95.3631°W)
Time: 02:06:52
(UTC-05:00)

AO-7 - Visible Passes

Search period start: 26 September 2021 00:00
Search period end: 06 October 2021 00:00
Orbit: 1440 x 1458 km, 101.9° (Epoch: 25 September)

Date Brightness Start Highest point End Pass type
(mag) Time Alt. Az. Time Alt. Az. Time Alt. Az.
26 Sep ? 04:00:46 10° NE 04:06:10 19° E 04:11:31 10° SE visible
26 Sep ? 05:51:04 10° N 05:59:20 71° WNW 06:07:32 10° SSW visible
27 Sep ? 04:51:31 10° NNE 04:59:26 47° ESE 05:07:16 10° S visible
27 Sep ? 06:44:44 10° N 06:51:45 32° WNW 06:58:47 10° WSW visible
28 Sep ? 03:54:20 10° ENE 03:59:03 16° E 04:03:44 10° SE visible
28 Sep ? 05:44:00 10° NNE 05:52:19 79° WNW 06:00:35 10° SSW visible
29 Sep ? 04:44:38 10° NNE 04:52:22 42° ESE 05:00:01 10° S visible
29 Sep ? 06:37:31 10° N 06:44:49 36° WNW 06:52:05 10° SW visible
30 Sep ? 03:48:07 10° ENE 03:51:55 14° E 03:55:43 10° ESE visible
30 Sep ? 05:36:58 10° NNE 05:45:18 87° WNW 05:53:35 10° SSW visible
01 Oct ? 04:37:46 10° NE 04:45:17 37° E 04:52:44 10° SSE visible
01 Oct ? 06:30:21 10° N 06:37:52 40° WNW 06:45:21 10° SW visible
02 Oct ? 03:42:19 10° ENE 03:44:48 11° E 03:47:17 10° ESE visible
02 Oct ? 05:29:56 10° NNE 05:38:17 85° ESE 05:46:34 10° SSW visible
03 Oct ? 04:30:58 10° NE 04:38:13 33° E 04:45:24 10° SSE visible
03 Oct ? 06:23:12 10° N 06:30:54 44° WNW 06:38:35 10° SW visible
04 Oct ? 05:22:56 10° NNE 05:31:15 77° ESE 05:39:31 10° SSW visible
05 Oct ? 04:24:11 10° NE 04:31:08 29° E 04:38:01 10° SSE visible
05 Oct ? 06:16:03 10° N 06:23:55 50° WNW 06:31:46 10° SW visible
